DF001 KTVL-O24

Flight info

Callsign DF001
Flight time 1h 25m
Altitude 5000
Route KTVL DCT 3851N12001W DCT 3847N12000W DCT 3847N11955W DCT 3841N11957W DCT 3842N12007W DCT SPOOK DCT 3827N12031W DCT TIPRE DCT ORANG DCT 3757N12120W DCT SHARR DCT MOD DCT AWALI DCT KMPI DCT 3729N11958W DCT 3731N11955W DCT 3736N11957W DCT ELCAP DCT 3744N11933W DCT 3746N11930W DCT 3747N11928W DCT 3749N11928W DCT 3752N11925W DCT 3752N11924W DCT 3752N11916W DCT 3757N11913W DCT 3755N11910W DCT O24
Aircraft PC12/L-VGD/A

Departure

Time 2026-04-19 00:01
Airport Lake Tahoe Airport (KTVL)

Arrival

Time 2026-04-19 01:26
Airport Lee Vining Airport (O24)
Time Latitude Longitude Altitude Speed Heading
2026-04-18 23:46 38.89536 -119.99703 6266 ft 0 kts 108°
2026-04-18 23:55 38.89531 -119.99689 6266 ft 6 kts 148°
2026-04-18 23:55 38.89501 -119.99640 6266 ft 0 kts 104°
2026-04-18 23:55 38.89517 -119.99602 6264 ft 12 kts 22°
2026-04-18 23:55 38.89629 -119.99567 6265 ft 21 kts 13°
2026-04-18 23:56 38.89794 -119.99520 6265 ft 23 kts 14°
2026-04-18 23:56 38.89922 -119.99484 6267 ft 21 kts 13°
2026-04-18 23:56 38.90098 -119.99432 6266 ft 31 kts 15°
2026-04-18 23:56 38.90335 -119.99362 6264 ft 39 kts 14°
2026-04-18 23:57 38.90507 -119.99313 6261 ft 0 kts 18°
2026-04-18 23:57 38.90533 -119.99269 6261 ft 15 kts 88°
2026-04-18 23:57 38.90433 -119.99216 6262 ft 15 kts 186°
2026-04-18 23:57 38.90425 -119.99219 6262 ft 0 kts 193°
2026-04-18 23:58 38.90369 -119.99236 6262 ft 31 kts 191°
2026-04-18 23:58 38.89984 -119.99354 6268 ft 81 kts 192°
2026-04-18 23:58 38.89296 -119.99523 6260 ft 114 kts 193°
2026-04-18 23:59 38.88934 -119.99657 6264 ft 0 kts 197°
2026-04-18 23:59 38.88892 -119.99668 6264 ft 18 kts 195°
2026-04-18 23:59 38.88760 -119.99711 6262 ft 1 kts 268°
2026-04-19 00:00 38.88842 -119.99696 6263 ft 34 kts 12°
2026-04-19 00:00 38.89238 -119.99581 6261 ft 82 kts 13°
2026-04-19 00:00 38.89887 -119.99405 6360 ft 104 kts 11°
2026-04-19 00:00 38.90641 -119.99230 6695 ft 118 kts
2026-04-19 00:01 38.91510 -119.99164 7025 ft 132 kts 338°
2026-04-19 00:01 38.91943 -120.00092 7563 ft 132 kts 274°
2026-04-19 00:01 38.91523 -120.01217 7736 ft 162 kts 219°
2026-04-19 00:01 38.90377 -120.01727 7891 ft 192 kts 184°
2026-04-19 00:02 38.89014 -120.01851 8242 ft 200 kts 185°
2026-04-19 00:02 38.87582 -120.01971 8519 ft 212 kts 186°
2026-04-19 00:02 38.86098 -120.02034 8718 ft 220 kts 182°
2026-04-19 00:02 38.84517 -120.01998 8458 ft 229 kts 182°
2026-04-19 00:03 38.82965 -120.02045 8624 ft 215 kts 182°
2026-04-19 00:03 38.81472 -120.02011 8898 ft 216 kts 178°
2026-04-19 00:03 38.79955 -120.01713 9116 ft 221 kts 168°
2026-04-19 00:03 38.78488 -120.01179 9256 ft 220 kts 155°
2026-04-19 00:04 38.78152 -119.99499 9887 ft 217 kts 70°
2026-04-19 00:04 38.78904 -119.97727 10059 ft 230 kts 69°
2026-04-19 00:04 38.79028 -119.95657 10036 ft 240 kts 109°
2026-04-19 00:04 38.78094 -119.93979 10154 ft 234 kts 145°
2026-04-19 00:05 38.77325 -119.92190 10206 ft 242 kts 93°
2026-04-19 00:05 38.78060 -119.90325 10239 ft 246 kts 31°
2026-04-19 00:05 38.79639 -119.90400 10466 ft 228 kts 325°
2026-04-19 00:05 38.80401 -119.92098 10293 ft 232 kts 267°
2026-04-19 00:06 38.80315 -119.94143 10132 ft 228 kts 259°
2026-04-19 00:06 38.80024 -119.96108 10123 ft 222 kts 240°
2026-04-19 00:06 38.78730 -119.96671 10429 ft 222 kts 156°
2026-04-19 00:06 38.77851 -119.94991 10467 ft 231 kts 125°
2026-04-19 00:07 38.76453 -119.94482 10505 ft 225 kts 188°
2026-04-19 00:07 38.74873 -119.94731 10505 ft 230 kts 188°
2026-04-19 00:07 38.73293 -119.94974 10309 ft 227 kts 186°
2026-04-19 00:07 38.71752 -119.95284 10269 ft 226 kts 203°
2026-04-19 00:08 38.70878 -119.96864 10120 ft 224 kts 250°
2026-04-19 00:08 38.70441 -119.98705 10110 ft 217 kts 252°
2026-04-19 00:08 38.70193 -120.00638 10003 ft 226 kts 267°
2026-04-19 00:08 38.70236 -120.02650 10025 ft 224 kts 269°
2026-04-19 00:09 38.70300 -120.04628 10004 ft 223 kts 269°
2026-04-19 00:09 38.70332 -120.06621 9996 ft 226 kts 268°
2026-04-19 00:09 38.70357 -120.08629 10004 ft 224 kts 269°
2026-04-19 00:09 38.70381 -120.10621 10015 ft 223 kts 269°
2026-04-19 00:10 38.70098 -120.12564 9889 ft 231 kts 224°
2026-04-19 00:10 38.68777 -120.13617 9893 ft 231 kts 217°
2026-04-19 00:10 38.68039 -120.15396 9817 ft 227 kts 248°
2026-04-19 00:10 38.67391 -120.17238 9844 ft 228 kts 238°
2026-04-19 00:11 38.66639 -120.18996 8283 ft 256 kts 243°
2026-04-19 00:11 38.65852 -120.20985 7913 ft 229 kts 233°
2026-04-19 00:11 38.65279 -120.22721 7782 ft 204 kts 246°
2026-04-19 00:11 38.64812 -120.24421 8016 ft 211 kts 248°
2026-04-19 00:12 38.63758 -120.27357 8180 ft 222 kts 229°
2026-04-19 00:12 38.62729 -120.28783 8385 ft 216 kts 223°
2026-04-19 00:12 38.61810 -120.30361 8281 ft 225 kts 231°
2026-04-19 00:13 38.60956 -120.31979 8428 ft 214 kts 236°
2026-04-19 00:13 38.60124 -120.33608 8459 ft 223 kts 229°
2026-04-19 00:13 38.59076 -120.35046 8434 ft 213 kts 225°
2026-04-19 00:13 38.58060 -120.36463 8425 ft 211 kts 224°
2026-04-19 00:14 38.57050 -120.37853 8375 ft 221 kts 224°
2026-04-19 00:14 38.56001 -120.39271 8250 ft 224 kts 227°
2026-04-19 00:14 38.54971 -120.40748 8359 ft 221 kts 223°
2026-04-19 00:14 38.54008 -120.41971 8403 ft 167 kts 223°
2026-04-19 00:15 38.53712 -120.43702 8090 ft 186 kts 238°
2026-04-19 00:15 38.52794 -120.44808 8325 ft 194 kts 209°
2026-04-19 00:15 38.51628 -120.45860 8322 ft 213 kts 210°
2026-04-19 00:15 38.50369 -120.46871 8510 ft 217 kts 208°
2026-04-19 00:16 38.49132 -120.47961 8511 ft 222 kts 217°
2026-04-19 00:16 38.48011 -120.49355 8240 ft 222 kts 218°
2026-04-19 00:16 38.46947 -120.50644 8349 ft 211 kts 221°
2026-04-19 00:16 38.45919 -120.52073 8339 ft 225 kts 224°
2026-04-19 00:17 38.45065 -120.53765 8386 ft 229 kts 236°
2026-04-19 00:17 38.44282 -120.55517 8354 ft 226 kts 236°
2026-04-19 00:17 38.43519 -120.57251 8293 ft 224 kts 233°
2026-04-19 00:17 38.42617 -120.58728 6207 ft 192 kts 231°
2026-04-19 00:18 38.41631 -120.60420 5516 ft 200 kts 229°
2026-04-19 00:18 38.40770 -120.61806 5465 ft 202 kts 229°
2026-04-19 00:18 38.39790 -120.63081 5261 ft 205 kts 205°
2026-04-19 00:18 38.38401 -120.63656 4594 ft 218 kts 201°
2026-04-19 00:19 38.37486 -120.64951 4489 ft 213 kts 278°
2026-04-19 00:19 38.38464 -120.65745 5376 ft 178 kts 30°
2026-04-19 00:19 38.38632 -120.64534 5889 ft 146 kts 135°
2026-04-19 00:19 38.37741 -120.64483 5996 ft 177 kts 230°
2026-04-19 00:20 38.37241 -120.66033 5940 ft 198 kts 241°
2026-04-19 00:20 38.36523 -120.67540 5999 ft 201 kts 249°
2026-04-19 00:20 38.37248 -120.68714 6136 ft 204 kts 26°
2026-04-19 00:20 38.37138 -120.67733 6269 ft 179 kts 197°
2026-04-19 00:21 38.36072 -120.68544 5931 ft 189 kts 147°
2026-04-19 00:21 38.35955 -120.67074 6202 ft 199 kts 53°
2026-04-19 00:21 38.36799 -120.65606 5722 ft 211 kts 85°
2026-04-19 00:21 38.36545 -120.63838 5728 ft 199 kts 104°
2026-04-19 00:22 38.35883 -120.62847 5668 ft 198 kts 200°
2026-04-19 00:22 38.34635 -120.63892 4800 ft 222 kts 217°
2026-04-19 00:22 38.33687 -120.65441 3781 ft 227 kts 239°
2026-04-19 00:22 38.32860 -120.67097 2751 ft 220 kts 230°
2026-04-19 00:23 38.32123 -120.68738 1783 ft 215 kts 249°
2026-04-19 00:23 38.31613 -120.70456 1388 ft 205 kts 251°
2026-04-19 00:23 38.31148 -120.72124 1236 ft 196 kts 252°
2026-04-19 00:23 38.30673 -120.73717 1174 ft 189 kts 238°
2026-04-19 00:24 38.29783 -120.74949 1149 ft 189 kts 231°
2026-04-19 00:24 38.29132 -120.76411 1082 ft 190 kts 245°
2026-04-19 00:24 38.28838 -120.78005 1077 ft 187 kts 273°
2026-04-19 00:24 38.28792 -120.79644 1109 ft 187 kts 264°
2026-04-19 00:25 38.28394 -120.81229 1080 ft 189 kts 242°
2026-04-19 00:25 38.27478 -120.82485 850 ft 205 kts 220°
2026-04-19 00:25 38.26685 -120.84032 766 ft 211 kts 240°
2026-04-19 00:25 38.26061 -120.85682 744 ft 205 kts 250°
2026-04-19 00:26 38.25566 -120.87351 697 ft 200 kts 229°
2026-04-19 00:26 38.24450 -120.88389 602 ft 200 kts 214°
2026-04-19 00:26 38.23409 -120.89546 581 ft 200 kts 230°
2026-04-19 00:26 38.22923 -120.91170 312 ft 202 kts 264°
2026-04-19 00:27 38.22844 -120.92931 274 ft 199 kts 269°
2026-04-19 00:27 38.22595 -120.94648 263 ft 199 kts 255°
2026-04-19 00:27 38.22267 -120.96319 352 ft 193 kts 257°
2026-04-19 00:27 38.21946 -120.97975 429 ft 194 kts 255°
2026-04-19 00:28 38.21475 -120.99597 410 ft 197 kts 246°
2026-04-19 00:28 38.20915 -121.01183 327 ft 200 kts 248°
2026-04-19 00:28 38.20357 -121.02746 451 ft 193 kts 247°
2026-04-19 00:28 38.20141 -121.04412 478 ft 196 kts 268°
2026-04-19 00:29 38.19953 -121.06126 412 ft 200 kts 247°
2026-04-19 00:29 38.19378 -121.07718 402 ft 198 kts 249°
2026-04-19 00:29 38.18825 -121.09295 366 ft 199 kts 241°
2026-04-19 00:29 38.18091 -121.10858 338 ft 215 kts 242°
2026-04-19 00:30 38.17386 -121.12573 312 ft 222 kts 243°
2026-04-19 00:30 38.16731 -121.14324 266 ft 216 kts 240°
2026-04-19 00:30 38.15614 -121.15473 255 ft 210 kts 201°
2026-04-19 00:30 38.14218 -121.16066 205 ft 211 kts 200°
2026-04-19 00:31 38.12873 -121.16777 230 ft 208 kts 207°
2026-04-19 00:31 38.11499 -121.17391 213 ft 211 kts 199°
2026-04-19 00:31 38.10071 -121.17853 115 ft 212 kts 195°
2026-04-19 00:31 38.08639 -121.18297 103 ft 212 kts 194°
2026-04-19 00:32 38.07231 -121.18728 99 ft 210 kts 194°
2026-04-19 00:32 38.05799 -121.18896 219 ft 206 kts 180°
2026-04-19 00:32 38.04428 -121.19348 302 ft 207 kts 212°
2026-04-19 00:32 38.03265 -121.20441 323 ft 210 kts 218°
2026-04-19 00:33 38.02127 -121.21628 295 ft 212 kts 227°
2026-04-19 00:33 38.01102 -121.22982 231 ft 214 kts 226°
2026-04-19 00:33 38.00092 -121.24366 245 ft 212 kts 227°
2026-04-19 00:33 37.99004 -121.25619 272 ft 211 kts 221°
2026-04-19 00:34 37.97174 -121.28405 312 ft 205 kts 239°
2026-04-19 00:34 37.96448 -121.29985 313 ft 213 kts 240°
2026-04-19 00:34 37.95650 -121.31527 310 ft 205 kts 215°
2026-04-19 00:35 37.94443 -121.31155 380 ft 201 kts 118°
2026-04-19 00:35 37.93626 -121.29807 167 ft 210 kts 161°
2026-04-19 00:35 37.92258 -121.29305 165 ft 201 kts 162°
2026-04-19 00:35 37.90924 -121.28812 149 ft 199 kts 162°
2026-04-19 00:36 37.89594 -121.28334 138 ft 204 kts 161°
2026-04-19 00:36 37.88225 -121.27887 139 ft 203 kts 171°
2026-04-19 00:36 37.86790 -121.27858 117 ft 210 kts 192°
2026-04-19 00:36 37.85398 -121.28238 109 ft 209 kts 191°
2026-04-19 00:37 37.83985 -121.28574 92 ft 204 kts 189°
2026-04-19 00:37 37.82600 -121.29030 93 ft 201 kts 198°
2026-04-19 00:37 37.81275 -121.29493 123 ft 202 kts 190°
2026-04-19 00:37 37.79908 -121.29999 136 ft 207 kts 191°
2026-04-19 00:38 37.78490 -121.30115 187 ft 203 kts 165°
2026-04-19 00:38 37.77568 -121.28884 218 ft 200 kts 116°
2026-04-19 00:38 37.76890 -121.27349 224 ft 201 kts 122°
2026-04-19 00:38 37.76175 -121.25857 245 ft 202 kts 121°
2026-04-19 00:39 37.75434 -121.24356 298 ft 201 kts 120°
2026-04-19 00:39 37.74761 -121.22804 314 ft 204 kts 116°
2026-04-19 00:39 37.74124 -121.21202 325 ft 203 kts 116°
2026-04-19 00:39 37.73517 -121.19592 357 ft 202 kts 114°
2026-04-19 00:40 37.72805 -121.18083 344 ft 200 kts 125°
2026-04-19 00:40 37.72059 -121.16602 345 ft 201 kts 122°
2026-04-19 00:40 37.71320 -121.15115 317 ft 200 kts 123°
2026-04-19 00:40 37.70594 -121.13589 330 ft 202 kts 119°
2026-04-19 00:41 37.70002 -121.12009 348 ft 201 kts 117°
2026-04-19 00:41 37.69381 -121.10420 380 ft 204 kts 119°
2026-04-19 00:41 37.68726 -121.08828 413 ft 204 kts 118°
2026-04-19 00:41 37.68091 -121.07228 471 ft 205 kts 118°
2026-04-19 00:42 37.67436 -121.05621 508 ft 206 kts 119°
2026-04-19 00:42 37.66792 -121.03993 468 ft 209 kts 120°
2026-04-19 00:42 37.65913 -121.02544 411 ft 208 kts 135°
2026-04-19 00:42 37.64868 -121.01297 429 ft 206 kts 138°
2026-04-19 00:43 37.63830 -121.00040 332 ft 212 kts 136°
2026-04-19 00:43 37.62605 -120.99114 330 ft 207 kts 162°
2026-04-19 00:43 37.61357 -120.98273 302 ft 206 kts 140°
2026-04-19 00:43 37.60328 -120.97015 259 ft 205 kts 140°
2026-04-19 00:44 37.59361 -120.95724 295 ft 204 kts 114°
2026-04-19 00:44 37.59443 -120.93957 292 ft 209 kts 79°
2026-04-19 00:44 37.59481 -120.92160 277 ft 204 kts 92°
2026-04-19 00:44 37.59501 -120.90377 295 ft 202 kts 91°
2026-04-19 00:45 37.59555 -120.88647 358 ft 201 kts 82°
2026-04-19 00:45 37.59521 -120.86908 385 ft 200 kts 98°
2026-04-19 00:45 37.59492 -120.85139 403 ft 203 kts 91°
2026-04-19 00:45 37.59482 -120.83369 424 ft 200 kts 94°
2026-04-19 00:46 37.59494 -120.81619 457 ft 200 kts 90°
2026-04-19 00:46 37.59504 -120.79873 508 ft 199 kts 92°
2026-04-19 00:46 37.59518 -120.78104 489 ft 201 kts 95°
2026-04-19 00:46 37.59489 -120.76333 566 ft 205 kts 91°
2026-04-19 00:47 37.59510 -120.74546 617 ft 203 kts 92°
2026-04-19 00:47 37.59517 -120.72747 607 ft 207 kts 91°
2026-04-19 00:47 37.59727 -120.70990 674 ft 206 kts 76°
2026-04-19 00:47 37.60126 -120.69241 752 ft 209 kts 76°
2026-04-19 00:48 37.60541 -120.67485 850 ft 209 kts 75°
2026-04-19 00:48 37.60944 -120.65715 899 ft 211 kts 77°
2026-04-19 00:48 37.61230 -120.63897 912 ft 212 kts 80°
2026-04-19 00:48 37.61567 -120.62095 993 ft 211 kts 78°
2026-04-19 00:49 37.61925 -120.60311 1035 ft 209 kts 78°
2026-04-19 00:49 37.62212 -120.58501 1062 ft 211 kts 79°
2026-04-19 00:49 37.62570 -120.56709 1114 ft 210 kts 76°
2026-04-19 00:49 37.62919 -120.54967 1158 ft 204 kts 86°
2026-04-19 00:50 37.62670 -120.53212 1134 ft 202 kts 106°
2026-04-19 00:50 37.62310 -120.51500 1238 ft 203 kts 106°
2026-04-19 00:50 37.61909 -120.49775 1309 ft 205 kts 108°
2026-04-19 00:50 37.61509 -120.48055 1420 ft 203 kts 108°
2026-04-19 00:51 37.61110 -120.46324 1385 ft 207 kts 108°
2026-04-19 00:51 37.60720 -120.44577 1420 ft 207 kts 107°
2026-04-19 00:51 37.60354 -120.42826 1469 ft 206 kts 105°
2026-04-19 00:51 37.59955 -120.41112 1524 ft 206 kts 108°
2026-04-19 00:52 37.59550 -120.39384 1615 ft 205 kts 107°
2026-04-19 00:52 37.59157 -120.37647 1632 ft 208 kts 108°
2026-04-19 00:52 37.58761 -120.35888 1660 ft 207 kts 108°
2026-04-19 00:52 37.58354 -120.34156 1676 ft 207 kts 109°
2026-04-19 00:53 37.57942 -120.32401 1721 ft 209 kts 108°
2026-04-19 00:53 37.57543 -120.30644 1734 ft 208 kts 106°
2026-04-19 00:53 37.57148 -120.28890 1788 ft 208 kts 107°
2026-04-19 00:53 37.56733 -120.27149 1796 ft 208 kts 109°
2026-04-19 00:54 37.56291 -120.25433 1785 ft 208 kts 110°
2026-04-19 00:54 37.55811 -120.23726 1796 ft 207 kts 111°
2026-04-19 00:54 37.55305 -120.22019 1766 ft 208 kts 111°
2026-04-19 00:54 37.54794 -120.20333 2049 ft 205 kts 112°
2026-04-19 00:55 37.54274 -120.18647 2517 ft 205 kts 112°
2026-04-19 00:55 37.53752 -120.16966 2696 ft 205 kts 113°
2026-04-19 00:55 37.53230 -120.15302 2747 ft 205 kts 114°
2026-04-19 00:55 37.52677 -120.13650 2801 ft 204 kts 111°
2026-04-19 00:56 37.52340 -120.11927 2830 ft 206 kts 105°
2026-04-19 00:56 37.52016 -120.10152 2756 ft 210 kts 104°
2026-04-19 00:56 37.51741 -120.08330 2775 ft 210 kts 101°
2026-04-19 00:56 37.51422 -120.06534 2570 ft 212 kts 101°
2026-04-19 00:57 37.51197 -120.04742 2309 ft 208 kts 99°
2026-04-19 00:57 37.50932 -120.03017 2445 ft 197 kts 103°
2026-04-19 00:57 37.50579 -120.01363 2866 ft 198 kts 108°
2026-04-19 00:57 37.50138 -119.99683 2988 ft 207 kts 110°
2026-04-19 00:58 37.49642 -119.97962 3033 ft 211 kts 111°
2026-04-19 00:58 37.49142 -119.96264 3007 ft 209 kts 111°
2026-04-19 00:58 37.49251 -119.94522 3026 ft 211 kts 58°
2026-04-19 00:58 37.50371 -119.93333 3459 ft 214 kts 28°
2026-04-19 00:59 37.51885 -119.93109 3615 ft 226 kts 347°
2026-04-19 00:59 37.53427 -119.93580 3667 ft 232 kts 345°
2026-04-19 00:59 37.54958 -119.94143 3735 ft 220 kts 342°
2026-04-19 00:59 37.56408 -119.94771 3739 ft 223 kts 339°
2026-04-19 01:00 37.57920 -119.95433 3485 ft 228 kts 342°
2026-04-19 01:00 37.59369 -119.96035 2916 ft 217 kts 344°
2026-04-19 01:00 37.60829 -119.96133 2473 ft 222 kts 13°
2026-04-19 01:00 37.62179 -119.95347 2126 ft 201 kts 36°
2026-04-19 01:01 37.63103 -119.94033 1776 ft 210 kts 57°
2026-04-19 01:01 37.64099 -119.92667 1859 ft 213 kts 44°
2026-04-19 01:01 37.65264 -119.91558 1935 ft 209 kts 11°
2026-04-19 01:01 37.66609 -119.92161 2053 ft 210 kts 353°
2026-04-19 01:02 37.67568 -119.91326 2909 ft 169 kts 104°
2026-04-19 01:02 37.67133 -119.89767 2089 ft 218 kts 68°
2026-04-19 01:02 37.68249 -119.88584 2439 ft 209 kts 30°
2026-04-19 01:02 37.69409 -119.87652 3059 ft 186 kts 54°
2026-04-19 01:03 37.69683 -119.86259 3988 ft 148 kts 100°
2026-04-19 01:03 37.69462 -119.85105 4902 ft 127 kts 121°
2026-04-19 01:03 37.68790 -119.83973 4491 ft 199 kts 139°
2026-04-19 01:03 37.67686 -119.82645 3678 ft 229 kts 122°
2026-04-19 01:04 37.67187 -119.80774 3101 ft 216 kts 101°
2026-04-19 01:04 37.67342 -119.78898 3030 ft 222 kts 78°
2026-04-19 01:04 37.67673 -119.77020 2827 ft 208 kts 80°
2026-04-19 01:04 37.67663 -119.75189 2878 ft 202 kts 94°
2026-04-19 01:05 37.67846 -119.73529 3348 ft 199 kts 47°
2026-04-19 01:05 37.69138 -119.72767 3525 ft 210 kts 21°
2026-04-19 01:05 37.70530 -119.72194 3789 ft 211 kts 10°
2026-04-19 01:05 37.71921 -119.71598 4052 ft 208 kts 48°
2026-04-19 01:06 37.72032 -119.69804 3927 ft 225 kts 95°
2026-04-19 01:06 37.71835 -119.67828 4001 ft 223 kts 97°
2026-04-19 01:06 37.71845 -119.65882 4086 ft 225 kts 78°
2026-04-19 01:06 37.72207 -119.63944 4175 ft 227 kts 80°
2026-04-19 01:07 37.72631 -119.62057 4203 ft 227 kts 65°
2026-04-19 01:07 37.73484 -119.60379 4175 ft 230 kts 53°
2026-04-19 01:07 37.74303 -119.58685 4244 ft 227 kts 81°
2026-04-19 01:07 37.74259 -119.56732 4754 ft 216 kts 85°
2026-04-19 01:08 37.74836 -119.55071 5605 ft 193 kts 61°
2026-04-19 01:08 37.75511 -119.53697 6566 ft 184 kts 59°
2026-04-19 01:08 37.76235 -119.52351 7191 ft 189 kts 48°
2026-04-19 01:08 37.77128 -119.51119 7899 ft 190 kts 46°
2026-04-19 01:09 37.78061 -119.49942 8748 ft 187 kts 47°
2026-04-19 01:09 37.78960 -119.48770 9417 ft 192 kts 49°
2026-04-19 01:09 37.79877 -119.47450 9873 ft 207 kts 52°
2026-04-19 01:09 37.80252 -119.45707 10093 ft 226 kts 111°
2026-04-19 01:10 37.79015 -119.44689 10191 ft 235 kts 191°
2026-04-19 01:10 37.77912 -119.46180 10132 ft 244 kts 243°
2026-04-19 01:10 37.77051 -119.47976 10037 ft 228 kts 234°
2026-04-19 01:10 37.76160 -119.49695 9849 ft 237 kts 236°
2026-04-19 01:11 37.75314 -119.51424 9656 ft 230 kts 230°
2026-04-19 01:11 37.74177 -119.52853 9415 ft 231 kts 225°
2026-04-19 01:11 37.73447 -119.54563 9457 ft 231 kts 260°
2026-04-19 01:11 37.73365 -119.56605 9404 ft 231 kts 264°
2026-04-19 01:12 37.73284 -119.58622 9215 ft 232 kts 263°
2026-04-19 01:12 37.73238 -119.60652 9374 ft 229 kts 266°
2026-04-19 01:12 37.73210 -119.62689 9574 ft 235 kts 265°
2026-04-19 01:12 37.73143 -119.64781 9704 ft 242 kts 266°
2026-04-19 01:13 37.72843 -119.66836 9761 ft 240 kts 238°
2026-04-19 01:13 37.71654 -119.68170 9949 ft 225 kts 197°
2026-04-19 01:13 37.70149 -119.68168 10055 ft 217 kts 158°
2026-04-19 01:13 37.69052 -119.66949 10065 ft 221 kts 122°
2026-04-19 01:14 37.68811 -119.65041 10009 ft 230 kts 83°
2026-04-19 01:14 37.69571 -119.63243 10018 ft 235 kts 61°
2026-04-19 01:14 37.70519 -119.61554 10040 ft 237 kts 59°
2026-04-19 01:14 37.71510 -119.59903 10018 ft 236 kts 58°
2026-04-19 01:15 37.72500 -119.58254 10032 ft 234 kts 57°
2026-04-19 01:15 37.73282 -119.56479 10023 ft 229 kts 68°
2026-04-19 01:15 37.73991 -119.54679 10071 ft 230 kts 64°
2026-04-19 01:15 37.74748 -119.52914 9935 ft 223 kts 57°
2026-04-19 01:16 37.75912 -119.51647 9956 ft 226 kts 33°
2026-04-19 01:16 37.77246 -119.50575 10035 ft 232 kts 32°
2026-04-19 01:16 37.78631 -119.49538 10262 ft 227 kts 25°
2026-04-19 01:16 37.80069 -119.48645 10264 ft 238 kts 29°
2026-04-19 01:17 37.81510 -119.47543 10109 ft 244 kts 32°
2026-04-19 01:17 37.82905 -119.46354 10096 ft 241 kts 36°
2026-04-19 01:17 37.84296 -119.45138 10048 ft 245 kts 35°
2026-04-19 01:17 37.85685 -119.43908 10042 ft 243 kts 36°
2026-04-19 01:18 37.86939 -119.42543 10024 ft 241 kts 54°
2026-04-19 01:18 37.87598 -119.40637 10057 ft 235 kts 72°
2026-04-19 01:18 37.87810 -119.38611 10068 ft 233 kts 88°
2026-04-19 01:18 37.87880 -119.36547 10076 ft 235 kts 90°
2026-04-19 01:19 37.87896 -119.34464 10123 ft 236 kts 90°
2026-04-19 01:19 37.87946 -119.32368 10058 ft 241 kts 90°
2026-04-19 01:19 37.88028 -119.30270 10098 ft 238 kts 87°
2026-04-19 01:19 37.88240 -119.28191 10131 ft 237 kts 78°
2026-04-19 01:20 37.89090 -119.26439 10148 ft 239 kts 40°
2026-04-19 01:20 37.90602 -119.25672 10200 ft 240 kts 11°
2026-04-19 01:20 37.92218 -119.25125 10150 ft 242 kts 21°
2026-04-19 01:20 37.93517 -119.23829 10007 ft 241 kts 59°
2026-04-19 01:21 37.94061 -119.21848 9805 ft 235 kts 88°
2026-04-19 01:21 37.93806 -119.19846 8960 ft 232 kts 113°
2026-04-19 01:21 37.93114 -119.18058 8510 ft 219 kts 108°
2026-04-19 01:21 37.93069 -119.16240 8226 ft 197 kts 79°
2026-04-19 01:22 37.93439 -119.14663 7996 ft 188 kts 74°
2026-04-19 01:22 37.93857 -119.13063 7807 ft 192 kts 73°
2026-04-19 01:22 37.94325 -119.11497 7587 ft 195 kts 58°
2026-04-19 01:22 37.95537 -119.11297 7598 ft 199 kts 335°
2026-04-19 01:23 37.96747 -119.11964 7729 ft 182 kts 339°
2026-04-19 01:23 37.97881 -119.12306 7847 ft 159 kts 18°
2026-04-19 01:23 37.98513 -119.11320 7803 ft 151 kts 78°
2026-04-19 01:23 37.98767 -119.10042 7652 ft 134 kts 78°
2026-04-19 01:24 37.98926 -119.08892 7650 ft 134 kts 95°
2026-04-19 01:24 37.98337 -119.08086 7691 ft 134 kts 167°
2026-04-19 01:24 37.97452 -119.07846 7856 ft 129 kts 164°
2026-04-19 01:24 37.96617 -119.07600 7965 ft 123 kts 161°
2026-04-19 01:25 37.95823 -119.07353 8065 ft 115 kts 162°
2026-04-19 01:25 37.95050 -119.07126 8021 ft 112 kts 167°
2026-04-19 01:25 37.94458 -119.07710 7910 ft 121 kts 252°
2026-04-19 01:25 37.94360 -119.08782 7532 ft 118 kts 268°
2026-04-19 01:26 37.94543 -119.09787 7125 ft 117 kts 304°
2026-04-19 01:26 37.95190 -119.10336 6802 ft 110 kts 340°
2026-04-19 01:26 37.95813 -119.10600 6760 ft 57 kts 342°
2026-04-19 01:26 37.96045 -119.10693 6754 ft 36 kts 341°
2026-04-19 01:27 37.96269 -119.10785 6750 ft 12 kts 336°
2026-04-19 01:27 37.96272 -119.10836 6748 ft 0 kts 155°